Overview Statistics Trail Chart Weather Telemetry Raw packets
 

This is the latest recevied weather packets stored in our database for station/object IZ5MJO-13. If no packets are shown the sender has not sent any weather packets the latest 10 day(s).

<< 37 38 39 40 41 42 43 >>
Time Temp. Humidity Pressure Rain* Wind** Luminosity Snow
1787827797 33.33° C 42% 1007.5 hPa - - - -
1787826897 32.78° C 43% 1007.5 hPa - - - -
1787825997 32.22° C 45% 1007.5 hPa - - - -
1787825097 31.11° C 46% 1007.7 hPa - - - -
1787824197 31.11° C 46% 1007.9 hPa - - - -
1787823296 30° C 48% 1007.8 hPa - - - -
1787822396 29.44° C 49% 1007.9 hPa - - - -
1787821496 29.44° C 49% 1007.5 hPa - - - -
1787820596 29.44° C 49% 1007.4 hPa - - - -
1787819695 28.89° C 50% 1007.4 hPa - - - -
1787818795 28.33° C 52% 1007.5 hPa - - - -
1787817894 27.22° C 54% 1007.6 hPa - - - -
1787816994 26.67° C 55% 1007.9 hPa - - - -
1787816093 26.67° C 56% 1007.7 hPa - - - -
1787815193 25.56° C 55% 1007.8 hPa - - - -
1787814293 25° C 55% 1008.1 hPa - - - -
1787813396 23.89° C 58% 1007.7 hPa - - - -
1787813393 25° C 54% 1008 hPa - - - -
1787813053 23.33° C 59% 1007.7 hPa - - - -
1787812493 24.44° C 58% 1007.6 hPa - - - -
1787811593 23.89° C 58% 1007.7 hPa - - - -
1787810692 23.33° C 59% 1007.7 hPa - - - -
1787809795 23.33° C 58% 1007.6 hPa - - - -
1787809229 23.33° C 53% 1007.5 hPa - - - -
1787808895 23.33° C 57% 1007.6 hPa - - - -

* Rain since midnight (hover to see other rain measurements)
** Current wind speed in m/s (hover to see current wind gust speed)